Time,TemperatureF,DewpointF,PressureIn,WindDirection,WindDirectionDegrees,WindSpeedMPH,WindSpeedGustMPH,Humidity,HourlyPrecipIn,Conditions,Clouds,dailyrainin,SoftwareType,DateUTC
2013-04-14 00:07:00,46.4,38.9,29.42,ESE,112,16.6,-999.0,75,-99.99,,,0.00,Acu-Link.com,2013-04-14 05:07:00,
2013-04-14 00:22:00,46.2,38.7,29.42,ESE,112,16.6,-999.0,75,-99.99,,,0.00,Acu-Link.com,2013-04-14 05:22:00,
2013-04-14 00:37:00,46.2,38.7,29.42,ESE,112,16.6,-999.0,75,-99.99,,,0.00,Acu-Link.com,2013-04-14 05:37:00,
2013-04-14 00:52:00,46.2,39.1,29.43,ESE,112,10.9,-999.0,76,-99.99,,,0.00,Acu-Link.com,2013-04-14 05:52:00,
2013-04-14 01:07:00,46.4,39.3,29.42,ESE,112,16.1,-999.0,76,-99.99,,,0.00,Acu-Link.com,2013-04-14 06:07:00,
2013-04-14 01:23:00,46.6,39.4,29.40,ESE,112,10.4,-999.0,76,-99.99,,,0.00,Acu-Link.com,2013-04-14 06:23:00,
2013-04-14 01:38:00,46.6,39.4,29.39,ESE,112,11.9,-999.0,76,-99.99,,,0.00,Acu-Link.com,2013-04-14 06:38:00,
2013-04-14 01:53:00,46.9,39.7,29.39,ESE,112,8.9,-999.0,76,-99.99,,,0.00,Acu-Link.com,2013-04-14 06:53:00,
2013-04-14 02:08:00,46.9,39.7,29.37,ESE,112,10.4,-999.0,76,-99.99,,,0.00,Acu-Link.com,2013-04-14 07:08:00,
2013-04-14 02:23:00,47.1,39.9,29.37,East,90,11.4,-999.0,76,-99.99,,,0.00,Acu-Link.com,2013-04-14 07:23:00,
2013-04-14 02:38:00,47.3,40.1,29.38,ENE,67,8.3,-999.0,76,-99.99,,,0.00,Acu-Link.com,2013-04-14 07:38:00,
2013-04-14 02:53:00,46.2,40.7,29.36,ENE,67,13.5,-999.0,81,-99.99,,,0.00,Acu-Link.com,2013-04-14 07:53:00,
2013-04-14 03:10:00,46.4,40.6,29.35,ENE,67,11.9,-999.0,80,-99.99,,,0.00,Acu-Link.com,2013-04-14 08:10:00,
2013-04-14 03:25:00,46.4,40.9,29.34,ESE,112,11.4,-999.0,81,-99.99,,,0.00,Acu-Link.com,2013-04-14 08:25:00,
2013-04-14 03:40:00,47.1,41.3,29.33,East,90,10.4,-999.0,80,-99.99,,,0.00,Acu-Link.com,2013-04-14 08:40:00,
2013-04-14 03:56:00,46.6,41.1,29.32,ESE,112,11.4,-999.0,81,-99.99,,,0.00,Acu-Link.com,2013-04-14 08:56:00,
2013-04-14 04:11:00,47.3,41.4,29.31,ESE,112,13.5,-999.0,80,-99.99,,,0.00,Acu-Link.com,2013-04-14 09:11:00,
2013-04-14 04:26:00,47.1,41.3,29.30,ESE,112,11.9,-999.0,80,-99.99,,,0.00,Acu-Link.com,2013-04-14 09:26:00,
2013-04-14 05:11:00,48.0,42.1,29.26,ESE,112,11.9,-999.0,80,-99.99,,,0.00,Acu-Link.com,2013-04-14 10:11:00,
2013-04-14 05:26:00,47.7,42.2,29.26,SE,135,11.9,-999.0,81,-99.99,,,0.00,Acu-Link.com,2013-04-14 10:26:00,
2013-04-14 05:41:00,47.5,42.6,29.25,ESE,112,11.9,-999.0,83,-99.99,,,0.00,Acu-Link.com,2013-04-14 10:41:00,
2013-04-14 05:56:00,47.5,42.9,29.25,ESE,112,10.9,-999.0,84,-99.99,,,0.00,Acu-Link.com,2013-04-14 10:56:00,
2013-04-14 06:11:00,47.5,42.9,29.23,ESE,112,10.9,-999.0,84,-99.99,,,0.00,Acu-Link.com,2013-04-14 11:11:00,
2013-04-14 06:26:00,47.1,42.8,29.22,SE,135,10.4,-999.0,85,-99.99,,,0.00,Acu-Link.com,2013-04-14 11:26:00,
2013-04-14 06:42:00,47.3,43.0,29.20,ESE,112,12.5,-999.0,85,-99.99,,,0.00,Acu-Link.com,2013-04-14 11:42:00,
2013-04-14 06:57:00,47.5,43.5,29.20,ESE,112,11.4,-999.0,86,-99.99,,,0.00,Acu-Link.com,2013-04-14 11:57:00,
2013-04-14 07:12:00,48.0,44.0,29.19,ESE,112,10.4,-999.0,86,-99.99,,,0.00,Acu-Link.com,2013-04-14 12:12:00,
2013-04-14 07:27:00,48.4,44.1,29.20,SE,135,7.3,-999.0,85,-99.99,,,0.00,Acu-Link.com,2013-04-14 12:27:00,
2013-04-14 07:42:00,50.9,45.9,29.20,ESE,112,6.8,-999.0,83,-99.99,,,0.00,Acu-Link.com,2013-04-14 12:42:00,
2013-04-14 07:57:00,55.8,48.0,29.19,ESE,112,10.4,-999.0,75,-99.99,,,0.00,Acu-Link.com,2013-04-14 12:57:00,
2013-04-14 08:13:00,57.9,48.2,29.19,SE,135,8.9,-999.0,70,-99.99,,,0.00,Acu-Link.com,2013-04-14 13:13:00,
2013-04-14 08:43:00,58.8,48.3,29.15,SSE,157,9.9,-999.0,68,-99.99,,,0.00,Acu-Link.com,2013-04-14 13:43:00,
2013-04-14 08:58:00,59.9,48.1,29.15,SSE,157,10.4,-999.0,65,-99.99,,,0.00,Acu-Link.com,2013-04-14 13:58:00,
2013-04-14 09:13:00,61.2,48.9,29.14,SSE,157,19.1,-999.0,64,-99.99,,,0.00,Acu-Link.com,2013-04-14 14:13:00,
2013-04-14 09:28:00,61.7,49.0,29.14,SSW,202,17.6,-999.0,63,-99.99,,,0.00,Acu-Link.com,2013-04-14 14:28:00,
2013-04-14 09:43:00,62.4,49.2,29.14,SSE,157,22.7,-999.0,62,-99.99,,,0.00,Acu-Link.com,2013-04-14 14:43:00,
2013-04-14 09:58:00,63.1,50.3,29.15,SSE,157,24.8,-999.0,63,-99.99,,,0.00,Acu-Link.com,2013-04-14 14:58:00,
2013-04-14 10:14:00,64.2,50.9,29.13,SW,225,27.4,-999.0,62,-99.99,,,0.00,Acu-Link.com,2013-04-14 15:14:00,
2013-04-14 10:29:00,64.8,51.5,29.14,SW,225,23.3,-999.0,62,-99.99,,,0.01,Acu-Link.com,2013-04-14 15:29:00,
2013-04-14 10:44:00,66.2,51.9,29.14,SSW,202,27.9,-999.0,60,-99.99,,,0.08,Acu-Link.com,2013-04-14 15:44:00,
2013-04-14 11:00:00,66.9,52.1,29.15,SSW,202,25.8,-999.0,59,-99.99,,,0.36,Acu-Link.com,2013-04-14 16:00:00,
2013-04-14 11:15:00,66.9,52.1,29.14,SSW,202,24.8,-999.0,59,-99.99,,,0.58,Acu-Link.com,2013-04-14 16:15:00,
2013-04-14 11:30:00,67.6,51.8,29.15,South,180,27.9,-999.0,57,-99.99,,,0.62,Acu-Link.com,2013-04-14 16:30:00,
2013-04-14 11:45:00,67.8,51.5,29.17,SW,225,28.4,-999.0,56,-99.99,,,1.05,Acu-Link.com,2013-04-14 16:45:00,
2013-04-14 12:00:00,68.4,51.6,29.17,SW,225,34.1,-999.0,55,-99.99,,,1.38,Acu-Link.com,2013-04-14 17:00:00,
2013-04-14 12:16:00,68.0,51.2,29.17,SSW,202,20.2,-999.0,55,-99.99,,,1.52,Acu-Link.com,2013-04-14 17:16:00,
2013-04-14 12:31:00,68.2,51.4,29.17,SSW,202,27.9,-999.0,55,-99.99,,,1.82,Acu-Link.com,2013-04-14 17:31:00,
2013-04-14 12:47:00,68.4,50.6,29.17,SW,225,26.9,-999.0,53,-99.99,,,2.07,Acu-Link.com,2013-04-14 17:47:00,
2013-04-14 13:02:00,67.8,50.0,29.18,WSW,247,22.2,-999.0,53,-99.99,,,2.12,Acu-Link.com,2013-04-14 18:02:00,
2013-04-14 13:17:00,68.0,49.7,29.20,SW,225,22.7,-999.0,52,-99.99,,,2.16,Acu-Link.com,2013-04-14 18:17:00,
2013-04-14 13:47:00,62.8,49.1,29.24,West,270,18.1,-999.0,61,-99.99,,,2.57,Acu-Link.com,2013-04-14 18:47:00,
2013-04-14 14:17:00,62.2,46.8,29.26,West,270,17.1,-999.0,57,-99.99,,,2.57,Acu-Link.com,2013-04-14 19:17:00,
2013-04-14 14:32:00,62.4,47.4,29.26,West,270,15.0,-999.0,58,-99.99,,,2.58,Acu-Link.com,2013-04-14 19:32:00,
2013-04-14 14:47:00,61.5,47.9,29.27,WNW,292,16.6,-999.0,61,-99.99,,,2.58,Acu-Link.com,2013-04-14 19:47:00,
2013-04-14 15:03:00,62.1,47.6,29.28,West,270,15.5,-999.0,59,-99.99,,,2.58,Acu-Link.com,2013-04-14 20:03:00,
2013-04-14 15:18:00,61.3,45.9,29.29,West,270,17.6,-999.0,57,-99.99,,,2.59,Acu-Link.com,2013-04-14 20:18:00,
2013-04-14 15:33:00,59.4,44.2,29.31,West,270,14.5,-999.0,57,-99.99,,,2.60,Acu-Link.com,2013-04-14 20:33:00,
2013-04-14 15:48:00,59.5,43.3,29.31,West,270,14.5,-999.0,55,-99.99,,,2.60,Acu-Link.com,2013-04-14 20:48:00,
2013-04-14 16:03:00,60.3,44.1,29.31,West,270,13.5,-999.0,55,-99.99,,,2.60,Acu-Link.com,2013-04-14 21:03:00,
2013-04-14 16:18:00,61.7,44.4,29.30,West,270,10.4,-999.0,53,-99.99,,,2.60,Acu-Link.com,2013-04-14 21:18:00,
2013-04-14 16:33:00,62.2,43.8,29.30,West,270,17.6,-999.0,51,-99.99,,,2.60,Acu-Link.com,2013-04-14 21:33:00,
2013-04-14 16:48:00,64.2,41.8,29.31,WSW,247,15.5,-999.0,44,-99.99,,,2.62,Acu-Link.com,2013-04-14 21:48:00,
2013-04-14 17:03:00,62.4,39.6,29.31,WSW,247,14.0,-999.0,43,-99.99,,,2.63,Acu-Link.com,2013-04-14 22:03:00,
2013-04-14 17:18:00,60.8,38.8,29.32,SW,225,12.5,-999.0,44,-99.99,,,2.63,Acu-Link.com,2013-04-14 22:18:00,
2013-04-14 17:34:00,60.1,37.5,29.34,West,270,14.5,-999.0,43,-99.99,,,2.63,Acu-Link.com,2013-04-14 22:34:00,
2013-04-14 17:49:00,62.2,36.3,29.34,WSW,247,14.0,-999.0,38,-99.99,,,2.63,Acu-Link.com,2013-04-14 22:49:00,
2013-04-14 18:04:00,62.1,34.8,29.35,West,270,9.4,-999.0,36,-99.99,,,2.67,Acu-Link.com,2013-04-14 23:04:00,
2013-04-14 18:19:00,63.3,34.5,29.35,WSW,247,20.2,-999.0,34,-99.99,,,2.67,Acu-Link.com,2013-04-14 23:19:00,
2013-04-14 18:34:00,61.3,34.8,29.36,West,270,16.1,-999.0,37,-99.99,,,2.67,Acu-Link.com,2013-04-14 23:34:00,
2013-04-14 18:50:00,61.3,35.5,29.36,West,270,16.6,-999.0,38,-99.99,,,2.67,Acu-Link.com,2013-04-14 23:50:00,
2013-04-14 19:05:00,60.3,34.6,29.37,West,270,14.5,-999.0,38,-99.99,,,2.68,Acu-Link.com,2013-04-15 00:05:00,
2013-04-14 19:20:00,60.1,33.7,29.38,West,270,16.1,-999.0,37,-99.99,,,2.68,Acu-Link.com,2013-04-15 00:20:00,
2013-04-14 19:50:00,57.7,33.5,29.39,West,270,15.0,-999.0,40,-99.99,,,2.69,Acu-Link.com,2013-04-15 00:50:00,
2013-04-14 20:05:00,57.0,32.9,29.41,West,270,16.6,-999.0,40,-99.99,,,2.69,Acu-Link.com,2013-04-15 01:05:00,
2013-04-14 20:20:00,55.4,33.3,29.43,West,270,10.9,-999.0,43,-99.99,,,2.69,Acu-Link.com,2013-04-15 01:20:00,
2013-04-14 20:35:00,54.7,33.8,29.43,WNW,292,11.4,-999.0,45,-99.99,,,2.69,Acu-Link.com,2013-04-15 01:35:00,
2013-04-14 20:50:00,54.3,34.0,29.44,West,270,11.9,-999.0,46,-99.99,,,2.69,Acu-Link.com,2013-04-15 01:50:00,
2013-04-14 21:05:00,54.3,32.3,29.45,WSW,247,9.4,-999.0,43,-99.99,,,2.69,Acu-Link.com,2013-04-15 02:05:00,
2013-04-14 21:20:00,53.6,32.2,29.47,West,270,7.3,-999.0,44,-99.99,,,2.69,Acu-Link.com,2013-04-15 02:20:00,
2013-04-14 21:36:00,52.5,31.8,29.47,West,270,10.9,-999.0,45,-99.99,,,2.69,Acu-Link.com,2013-04-15 02:36:00,
2013-04-14 22:06:00,49.8,31.4,29.48,WSW,247,5.8,-999.0,49,-99.99,,,2.69,Acu-Link.com,2013-04-15 03:06:00,
2013-04-14 22:21:00,48.6,31.3,29.49,West,270,10.9,-999.0,51,-99.99,,,2.69,Acu-Link.com,2013-04-15 03:21:00,
2013-04-14 22:37:00,47.8,31.0,29.49,WSW,247,6.8,-999.0,52,-99.99,,,2.69,Acu-Link.com,2013-04-15 03:37:00,
2013-04-14 22:52:00,47.5,30.8,29.50,SW,225,7.3,-999.0,52,-99.99,,,2.69,Acu-Link.com,2013-04-15 03:52:00,
2013-04-14 23:07:00,46.6,30.9,29.50,West,270,7.3,-999.0,54,-99.99,,,2.69,Acu-Link.com,2013-04-15 04:07:00,
2013-04-14 23:22:00,45.3,31.0,29.50,WSW,247,6.3,-999.0,57,-99.99,,,2.69,Acu-Link.com,2013-04-15 04:22:00,
2013-04-14 23:37:00,45.3,31.0,29.51,WSW,247,8.3,-999.0,57,-99.99,,,2.69,Acu-Link.com,2013-04-15 04:37:00,
2013-04-14 23:52:00,44.8,30.9,29.51,WSW,247,8.3,-999.0,58,-99.99,,,2.69,Acu-Link.com,2013-04-15 04:52:00,